This demonstration page uses our WeatherBlox Daily Observations layout. Learn more.

Left ArrowRight Arrow

38.89511, -77.03637

Hourly Observations for May 11, 2019

Temp ( °F °C ) Dew Point ( °F °C ) Humidity (%) Winds ( mph kmh ) Pressure ( in mb ) Visibility ( mi km ) Precip ( " mm )
12:52 am 00:52 Cloudy 69 20.6 66 18.9 90 90 S 3 6 30.00 1016 10 16 N/A
1:52 am 01:52 Cloudy 69 20.6 65 18.3 87 87 N N/A 29.99 1016 10 16 N/A
2:07 am 02:07 Mostly Cloudy 67 19.4 65 18.3 93 93 S 5 7 30.00 1016 9 14 N/A
2:52 am 02:52 Mostly Cloudy 67 19.4 64 17.8 91 91 N N/A 29.99 1016 10 16 N/A
3:52 am 03:52 Mostly Cloudy 67 19.4 63 17.2 87 87 N N/A 29.98 1015 10 16 N/A
4:52 am 04:52 Mostly Cloudy 66 18.9 61 16.1 84 84 NW 5 7 30.00 1016 10 16 N/A
5:52 am 05:52 Mostly Cloudy 66 18.9 60 15.6 81 81 NNW 6 9 30.01 1016 10 16 N/A
6:52 am 06:52 Mostly Cloudy 66 18.9 59 15 78 78 NNW 7 11 30.03 1017 10 16 N/A
7:52 am 07:52 Mostly Cloudy with Light Rain 66 18.9 58 14.4 75 75 NNE 8 13 30.02 1017 10 16 N/A
8:52 am 08:52 Cloudy 67 19.4 57 13.9 71 71 NNE 10 17 30.03 1017 10 16 N/A
9:07 am 09:07 Cloudy 66 18.9 55 12.8 68 68 NNE 14 22 30.06 1018 10 16 N/A
9:26 am 09:26 Cloudy 66 18.9 55 12.8 68 68 NNE 13 20 30.06 1018 10 16 N/A
9:52 am 09:52 Cloudy 66 18.9 55 12.8 68 68 N 12 19 30.06 1018 10 16 N/A
10:52 am 10:52 Mostly Sunny 68 20 55 12.8 63 63 N 7 11 30.07 1018 10 16 N/A
11:52 am 11:52 Mostly Cloudy 69 20.6 54 12.2 59 59 NNW 6 9 30.06 1018 10 16 N/A
12:52 pm 12:52 Cloudy 68 20 52 11.1 57 57 N 9 15 30.05 1018 10 16 N/A
1:52 pm 13:52 Cloudy 70 21.1 53 11.7 55 55 N 8 13 30.04 1017 10 16 N/A
2:52 pm 14:52 Cloudy 69 20.6 54 12.2 59 59 NE 9 15 30.01 1016 10 16 N/A
3:52 pm 15:52 Cloudy 67 19.4 54 12.2 63 63 ENE 9 15 29.99 1016 10 16 N/A
4:52 pm 16:52 Cloudy with Light Rain 66 18.9 53 11.7 63 63 ENE 9 15 29.96 1015 10 16 N/A
5:42 pm 17:42 Cloudy with Rain 64 17.8 55 12.8 73 73 NE 5 7 29.98 1015 3 5 0.03 0.76
5:45 pm 17:45 Cloudy with Heavy Rain 63 17.2 55 12.8 76 76 VRB 3 6 29.99 1016 3 4 0.04 1.02
5:52 pm 17:52 Cloudy with Heavy Rain 62 16.7 55 12.8 78 78 NNW 6 9 29.98 1015 2 2 0.10 2.54
6:02 pm 18:02 Cloudy with Rain 62 16.7 56 13.3 80 80 NNE 6 9 29.97 1015 3 4 0.07 1.78
6:04 pm 18:04 Cloudy with Light Rain 62 16.7 56 13.3 80 80 NNE 6 9 29.97 1015 3 5 0.07 1.78
6:10 pm 18:10 Cloudy with Light Rain 62 16.7 57 13.9 84 84 NE 5 7 29.97 1015 9 14 0.07 1.78
6:26 pm 18:26 Cloudy with Light Rain 62 16.7 57 13.9 84 84 N 3 6 29.98 1015 5 8 0.08 2.03
6:29 pm 18:29 Cloudy with Heavy Rain 62 16.7 57 13.9 84 84 N 3 6 29.98 1015 3 4 0.09 2.29
6:37 pm 18:37 Cloudy with Light Rain 62 16.7 57 13.9 84 84 NE 6 9 29.97 1015 3 5 0.11 2.79
6:45 pm 18:45 Cloudy with Light Rain 62 16.7 57 13.9 84 84 ENE 7 11 29.97 1015 10 16 0.11 2.79
6:52 pm 18:52 Cloudy 62 16.7 57 13.9 84 84 ESE 8 13 29.96 1015 10 16 0.11 2.79
7:03 pm 19:03 Cloudy 62 16.7 57 13.9 84 84 E 9 15 29.96 1015 10 16 N/A
7:52 pm 19:52 Cloudy with Light Rain 60 15.6 55 12.8 84 84 ENE 12 19 29.94 1014 10 16 N/A
7:54 pm 19:54 Cloudy with Light Rain 60 15.6 55 12.8 84 84 ENE 13 20 29.94 1014 10 16 N/A
8:37 pm 20:37 Cloudy with Rain 59 15 54 12.2 83 83 NNE 10 17 29.95 1014 4 6 0.02 0.51
8:52 pm 20:52 Cloudy with Light Rain 59 15 54 12.2 83 83 NNE 9 15 29.95 1014 5 8 0.04 1.02
9:16 pm 21:16 Cloudy with Light Rain 58 14.4 54 12.2 87 87 NNE 9 15 29.94 1014 4 6 0.02 0.51
9:52 pm 21:52 Cloudy with Light Rain 58 14.4 54 12.2 87 87 NE 8 13 29.93 1014 4 6 0.05 1.27
10:06 pm 22:06 Cloudy with Light Rain 58 14.4 54 12.2 87 87 NNE 8 13 29.94 1014 6 10 0.02 0.51
10:27 pm 22:27 Cloudy with Light Rain 58 14.4 55 12.8 90 90 NE 8 13 29.93 1014 10 16 0.02 0.51
10:52 pm 22:52 Cloudy 59 15 55 12.8 87 87 ENE 7 11 29.92 1013 10 16 0.02 0.51
11:00 pm 23:00 Cloudy with Rain 59 15 55 12.8 87 87 VRB 3 6 29.93 1014 5 8 N/A
11:24 pm 23:24 Cloudy with Rain 59 15 56 13.3 90 90 NE 8 13 29.91 1013 4 6 0.03 0.76
11:52 pm 23:52 Cloudy with Light Rain 59 15 56 13.3 90 90 NE 8 13 29.89 1012 6 10 0.04 1.02

Powered by AerisWeather